Location: Palomar Mountain Lodge
(33.3110°N, 116.8495°W)
Time: 01:08:54
(UTC-07:00)

USA 234 - Pass Details

Date: 14 June 2018
Orbit: 1102 x 1105 km, 123.0° (Epoch: 03 July)

Event Time Altitude Azimuth Distance (km) Brightness Sun altitude
Rises 23:34:49 0° 41° (NE) 3,921 6.5 -30.8°
Reaches altitude 10° 23:37:18 10° 42° (NE) 2,962 5.8 -30.9°
Maximum altitude 23:43:52 88° 312° (NW) 1,106 3.1 -31.4°
Enters shadow 23:43:59 86° 256° (WSW) 1,107 3.1 -31.4°
